Location: Jetmore Oil Field
(38.1181°N, 99.9337°W)
Time: 09:25:32
(UTC+00:00)

STARLINK-2649 - Visible Passes

Search period start: 28 October 2021 00:00
Search period end: 07 November 2021 00:00
Orbit: 546 x 548 km, 53.1° (Epoch: 27 October)

Date Brightness Start Highest point End Pass type
(mag) Time Alt. Az. Time Alt. Az. Time Alt. Az.
28 Oct 6.9 09:55:51 11° ENE 09:55:51 11° ENE 09:56:06 10° ENE visible
28 Oct 4.0 11:31:29 39° WNW 11:32:00 41° NW 11:35:56 10° NE visible
29 Oct 4.5 11:25:55 32° NNW 11:25:55 32° NNW 11:29:32 10° NNE visible
30 Oct 5.0 11:20:12 25° NNW 11:20:12 25° NNW 11:23:04 10° NNE visible
31 Oct 5.4 11:14:23 20° N 11:14:23 20° N 11:16:34 10° NNE visible
01 Nov 5.8 11:08:28 16° N 11:08:28 16° N 11:10:02 10° NNE visible
02 Nov 6.0 11:02:29 13° N 11:02:29 13° N 11:03:27 10° NNE visible
03 Nov 6.3 10:56:26 11° N 10:56:26 11° N 10:56:52 10° NNE visible
03 Nov 6.1 12:35:14 10° N 12:35:42 10° N 12:36:11 10° N visible
04 Nov 6.1 12:28:31 10° N 12:29:30 11° N 12:30:30 10° NNE visible
05 Nov 6.1 12:21:50 10° N 12:23:17 12° NNE 12:24:44 10° NNE visible
06 Nov 6.0 12:15:08 10° NNW 12:17:01 13° NNE 12:18:54 10° NE visible
